sat.trackr.live / text

‹ back to catalog

STARLINK-3609

NORAD 51808 · 2022-017AS

PAYLOAD ACTIVE UNKNOWN

§ Identity

Operator
Country
US
Launch date
2022-02-25
Launch site
AFWTR
Launch vehicle
Mass (kg)
RCS (m²)

Purposes: comms

External: N2YO · Heavens-Above · Gunter

§ Orbital elements

Epoch: 2026-05-24T23:59:01.686048Z

Period
95.44 min
Inclination
53.2161°
Eccentricity
0.0001385
Mean motion
15.08841580 rev/d
Perigee alt
538.8 km
Apogee alt
540.7 km
Semi-major
6,917.9 km
B*
2.4364e-5
RAAN
356.5525°
Arg perigee
94.7311°
Mean anomaly
265.3839°
Rev number
23,548

§ Raw data

STARLINK-36091 51808U 22017AS  26144.99932507  .00000100  00000+0  24364-4 0  99982 51808  53.2161 356.5525 0001385  94.7311 265.3839 15.08841580235483

JSON: /api/v1/satellites/51808 · /tle

For live sub-satellite position, see the globe view (requires WebGL).

§ Visibility from observer

Set your observer location to see the next 7 days of passes ≥ 10°. The values pass through the URL so the page stays shareable.

No JS? Fill the form by hand. The geolocation button needs JavaScript.